Location: Gazon
(48.1318°N, 1.2708°W)
Time: 22:35:33
(UTC+00:00)

NOSS 3-2 (C) - Pass Details

Date: 18 September 2020
Orbit: 795 x 1418 km, 63.4° (Epoch: 02 October)

Event Time Altitude Azimuth Distance (km) Brightness Sun altitude
Rises 20:33:06 0° 318° (NW) 3,937 7.9 -23.4°
Reaches altitude 10° 20:35:38 10° 318° (NW) 3,059 7.1 -23.8°
Maximum altitude 20:43:08 85° 231° (SW) 1,287 4.0 -24.8°
Enters shadow 20:46:12 44° 148° (SSE) 1,761 4.3 -25.2°
